AO-07 1 07530U 74089B 24249.59620258 -.00000027 00000-0 12069-3 0 9992 2 07530 101.9846 245.0124 0011884 291.9792 179.4960 12.53678953279110 UO-11 1 14781U 84021B 24249.50457036 .00005310 00000-0 59435-3 0 9995 2 14781 97.7131 216.4231 0008594 159.9232 200.2324 14.87266364160420 AO-27 1 22825U 93061C 24249.69318814 .00000578 00000-0 23876-3 0 9998 2 22825 98.7812 303.2819 0008143 196.4890 163.6028 14.30569172614392 FO-29 1 24278U 96046B 24249.26846523 .00000173 00000-0 21351-3 0 9991 2 24278 98.5792 173.4212 0349820 341.0222 17.8147 13.53206015385263 NOAA-15 1 25338U 98030A 24249.82126801 .00000768 00000-0 33502-3 0 9997 2 25338 98.5654 275.2546 0011477 89.9115 270.3381 14.26693139368931 GO-32 1 25397U 98043D 24249.47458997 .00000525 00000-0 24801-3 0 9994 2 25397 98.9305 217.4296 0000460 344.9267 15.1898 14.24111259358848 ISS 1 25544U 98067A 24249.55933001 .00022679 00000-0 41180-3 0 9990 2 25544 51.6404 277.1848 0011054 323.6465 135.9932 15.49412367471016 NO-44 1 26931U 01043C 24249.84545881 .00000834 00000-0 34554-3 0 9992 2 26931 67.0502 123.1626 0007729 268.9033 91.1183 14.31354506197653 SO-50 1 27607U 02058C 24249.51605962 .00005289 00000-0 71840-3 0 9999 2 27607 64.5575 334.5479 0026091 67.5223 292.8640 14.79564206168206 CO-55 1 27844U 03031E 24249.51020004 .00001489 00000-0 67456-3 0 9998 2 27844 98.6796 255.4342 0008430 272.2284 87.7929 14.23433103 99216 CO-57 1 27848U 03031J 24249.47649740 .00001277 00000-0 58786-3 0 9992 2 27848 98.6827 255.5993 0008410 291.1155 68.9124 14.22850086 98953 RS-22 1 27939U 03042A 24249.87801956 .00006117 00000-0 10155-2 0 9993 2 27939 98.3013 47.4238 0012160 161.2477 339.5895 14.70492582120133 NOAA-18 1 28654U 05018A 24249.77559555 .00000754 00000-0 42524-3 0 9994 2 28654 98.8699 326.0589 0014166 190.9362 169.1504 14.13312747994648 CO-58 1 28895U 05043F 24249.32892362 .00007778 00000-0 13497-2 0 9995 2 28895 98.2130 25.3483 0016309 104.0887 256.2131 14.68405473 6210 CO-65 1 32785U 08021C 24249.34075415 .00015386 00000-0 12967-2 0 9996 2 32785 97.7641 214.0993 0013285 64.2701 295.9891 14.98208338887471 AAUSAT2 1 32788U 08021F 24249.75917574 .00059787 00000-0 25098-2 0 9997 2 32788 97.6001 230.5426 0002771 182.5850 177.5372 15.23232970890666 CO-66 1 32791U 08021J 24249.45442463 .00025806 00000-0 17512-2 0 9995 2 32791 97.6981 220.3269 0007346 60.0601 300.1355 15.06368334888674 RS-30 1 32953U 08025A 24249.87401820 .00000041 00000-0 22431-3 0 9998 2 32953 82.5034 39.2844 0018608 289.2487 70.6580 12.43147242739150 PRISM 1 33493U 09002B 24249.20251651 .00062550 00000-0 24659-2 0 9992 2 33493 98.1957 304.0064 0009270 331.3689 28.7037 15.25300892851210 NOAA-19 1 33591U 09005A 24249.80935429 .00000672 00000-0 38372-3 0 9997 2 33591 99.0400 306.4363 0014656 67.3617 292.9103 14.13104679803016 SRMSAT 1 37841U 11058D 24248.60030295 .00001060 00000-0 43474-3 0 9995 2 37841 19.9730 36.4436 0011663 248.0324 191.6985 14.11192536665795 RS-40 1 38735U 12041C 24249.53160487 .00000066 00000-0 40533-3 0 9999 2 38735 82.4741 119.8030 0018259 45.0931 315.1626 12.42614777549152 ZACUBE-1 1 39417U 13066B 24249.84775045 .00013430 00000-0 13429-2 0 9993 2 39417 97.7410 204.1016 0046980 252.5679 107.0400 14.90737863583591 Delfi-N3xt 1 39428U 13066N 24249.77561373 .00015983 00000-0 19480-2 0 9992 2 39428 97.8326 166.0613 0097613 185.7608 174.2490 14.80067824578183 GOMX-1 1 39430U 13066Q 24249.87820667 .00008242 00000-0 13454-2 0 9995 2 39430 97.7190 119.3615 0138441 356.8951 3.1379 14.64917885574853 LO-74 1 39440U 13066AA 24249.82671099 .00015343 00000-0 17441-2 0 9994 2 39440 97.8162 191.8235 0068660 12.3593 347.9285 14.84621774581492 AO-73 1 39444U 13066AE 24249.84267448 .00018884 00000-0 17378-2 0 9991 2 39444 97.7268 207.4491 0044299 230.2006 129.5311 14.94036113582732 DTUSAT-2 1 40030U 14033W 24249.84412150 .00018608 00000-0 14876-2 0 9995 2 40030 98.0185 204.5438 0007300 250.7887 109.2546 15.00255079555290 EO-80 1 40032U 14033Y 24249.87742990 .00018621 00000-0 14881-2 0 9999 2 40032 98.0097 204.5634 0007345 217.7044 142.3665 15.00269144555286 XW-2C 1 40906U 15049H 24249.84840102 .00076355 00000-0 13495-2 0 9996 2 40906 97.4735 269.1263 0006639 36.4214 323.7488 15.50052806496937 XW-2D 1 40907U 15049J 24249.82136838 .00145919 00000-0 15865-2 0 9995 2 40907 97.4651 272.7383 0003320 38.6318 321.5177 15.62976907497236 LILACSAT-2 1 40908U 15049K 24249.84317208 .00022773 00000-0 81672-3 0 9992 2 40908 97.5244 259.2525 0013778 72.1292 288.1449 15.28630232495807 XW-2B 1 40911U 15049N 24249.83520321 .00138182 00000-0 15879-2 0 9994 2 40911 97.4628 272.6958 0003761 42.4819 317.6729 15.61567122497097 IO-86 1 40931U 15052B 24231.70395842 .00002296 00000-0 22250-3 0 9993 2 40931 5.9997 265.9807 0013402 250.6059 109.2619 14.78018769480834 ChubuSat-2 1 41338U 16012B 24249.19128294 .00014735 00000-0 88402-3 0 9991 2 41338 30.9999 235.4088 0010756 315.1178 44.8590 15.09715671469691 ChubuSat-3 1 41339U 16012C 24249.30092626 .00013146 00000-0 80428-3 0 9999 2 41339 31.0068 233.7324 0010847 320.4223 39.5623 15.08987556469595 Horyu-4 1 41340U 16012D 24249.17453275 .00034169 00000-0 15540-2 0 9997 2 41340 31.0009 173.2458 0007534 61.0938 299.0458 15.19540621470319 Lapan A3 1 41603U 16040E 24249.84917501 .00008866 00000-0 34495-3 0 9997 2 41603 97.1425 259.9609 0012342 165.7690 194.3900 15.26165283455526 Pratham 1 41783U 16059A 24249.58691549 .00003215 00000-0 60059-3 0 9996 2 41783 97.8352 265.1594 0033720 124.2046 236.2362 14.65213237424317 CAS-2T 1 41847U 16066G 24249.54812827 .00002880 00000-0 42835-3 0 9994 2 41847 98.4540 320.2506 0351372 295.3647 61.1548 14.41715934411078 CAS-4B 1 42759U 17034B 24249.86680899 .00039939 00000-0 12493-2 0 9991 2 42759 43.0151 129.3520 0011881 179.9363 180.1494 15.32407624399767 CAS-4A 1 42761U 17034D 24249.86132580 .00041883 00000-0 13021-2 0 9992 2 42761 43.0189 127.6700 0011865 192.3696 167.6868 15.32584151399779 D-SAT 1 42794U 17036AF 24249.50237858 .00015468 00000-0 10330-2 0 9995 2 42794 97.4814 228.5270 0105599 234.6923 124.4393 15.02561087392808 TechnoSat 1 42829U 17042E 24249.05692211 .00011497 00000-0 98551-3 0 9999 2 42829 97.3890 65.7129 0012683 157.5803 202.5977 14.97613982389127 AO-91 1 43017U 17073E 24249.14427560 .00024553 00000-0 14480-2 0 9991 2 43017 97.5645 121.8527 0204976 26.5612 334.5938 14.95530486367601 TianYi 6 1 43158U 18008D 24249.66568682 .00240690 00000-0 23476-2 0 9991 2 43158 97.2488 299.3114 0007121 164.3692 195.7789 15.65426158366972 S-Net D 1 43186U 18014G 24249.29454694 .00014058 00000-0 96779-3 0 9999 2 43186 97.5793 149.7543 0012286 94.0734 266.1897 15.05927180360559 S-Net B 1 43187U 18014H 24249.23079744 .00013423 00000-0 92435-3 0 9993 2 43187 97.5801 149.6473 0013170 90.2761 269.9975 15.05916493360544 S-Net A 1 43188U 18014J 24249.69430246 .00013451 00000-0 92579-3 0 9992 2 43188 97.5805 150.2225 0012928 89.6652 270.6056 15.05938964360617 S-Net C 1 43189U 18014K 24249.69799683 .00013148 00000-0 90477-3 0 9994 2 43189 97.5823 150.1899 0014735 83.1737 277.1166 15.05929678359169 Ten-Koh 1 43677U 18084G 24249.31513288 .00010494 00000-0 91537-3 0 9996 2 43677 98.0728 45.2899 0014925 111.1287 249.1531 14.96961238318705 PO-101 1 43678U 18084H 24249.89700166 .00005454 00000-0 49291-3 0 9993 2 43678 98.0815 50.3212 0009628 120.8031 239.4137 14.95867691318988 QO-100 1 43700U 18090A 24249.25761153 .00000143 00000-0 00000-0 0 9991 2 43700 0.0139 217.1892 0002583 342.9169 263.2958 1.00273848 21169 MinXSS-2 1 43758U 18099A 24249.14077200 .00028127 00000-0 16422-2 0 9993 2 43758 97.5459 310.3757 0016046 47.8399 312.4191 15.11774373314852 AO-95 1 43770U 18099N 24249.66424221 .00020367 00000-0 13265-2 0 9993 2 43770 97.5369 305.8603 0014456 90.5317 269.7567 15.07874785314688 RANGE-B 1 43772U 18099Q 24249.70453101 .00031475 00000-0 17741-2 0 9994 2 43772 97.5166 309.7093 0004489 2.2139 357.9111 15.13117399314883 RANGE-A 1 43773U 18099R 24249.73118556 .00013022 00000-0 95106-3 0 9990 2 43773 97.4944 300.4081 0014492 65.3744 294.8990 15.03701349314538 MOVE-II 1 43780U 18099Y 24249.70889320 .00056031 00000-0 25029-2 0 9992 2 43780 97.5130 312.1752 0005958 68.4658 291.7212 15.21122787315148 SNUSat 2 1 43782U 18099AA 24249.39692598 .00016717 00000-0 11224-2 0 9997 2 43782 97.5055 304.3056 0014506 34.5801 325.6367 15.06791473314648 SnugLite 1 43784U 18099AC 24249.68039870 .00020966 00000-0 13581-2 0 9998 2 43784 97.4878 303.8823 0005054 54.7298 305.4402 15.08145063314769 ITASat 1 1 43786U 18099AE 24249.71024101 .00017856 00000-0 12254-2 0 9995 2 43786 97.5017 304.7482 0017699 80.0932 280.2292 15.05921357314686 EAGLET 1 1 43790U 18099AJ 24249.11102457 .00013239 00000-0 95773-3 0 9994 2 43790 97.5208 304.6484 0014083 61.3121 298.9519 15.04061351314282 ESEO 1 43792U 18099AL 24249.72528915 .00005702 00000-0 45897-3 0 9992 2 43792 97.5082 301.5884 0009082 48.5050 311.6952 15.00307216314277 CSIM 1 43793U 18099AM 24249.71320703 .00053601 00000-0 24237-2 0 9992 2 43793 97.5231 313.9570 0010583 37.8996 322.2982 15.20684029314993 JO-97 1 43803U 18099AX 24249.70094714 .00023274 00000-0 14414-2 0 9992 2 43803 97.5124 306.6621 0009545 35.2909 324.8950 15.09744910314833 Suomi 100 1 43804U 18099AY 24249.66575435 .00019786 00000-0 12586-2 0 9993 2 43804 97.5190 306.3977 0015287 31.6768 328.5377 15.08739125314803 ISAT 1 43879U 18111D 24249.56566941 .00031788 00000-0 17701-2 0 9991 2 43879 97.6087 154.9910 0015233 85.8665 274.4307 15.13461047311566 UWE-4 1 43880U 18111E 24249.54356396 .00026754 00000-0 15440-2 0 9997 2 43880 97.6017 154.7730 0018749 93.4427 266.8949 15.12164712311560 Sparrow 1 43881U 18111F 24249.70616305 .00031980 00000-0 17529-2 0 9992 2 43881 97.6186 157.1953 0012269 117.4841 242.7639 15.14058969309654 Prox-1 1 44339U 19036A 24249.73297870 .00022134 00000-0 36227-2 0 9990 2 44339 23.9986 66.3607 0007378 174.8209 185.2363 14.69318005277186 SONATE 1 44400U 19038Q 24249.44544485 .00050736 00000-0 12953-2 0 9995 2 44400 97.7150 247.4062 0015651 168.3196 191.8415 15.39200387286407 Taurus 1 1 44530U 19059C 24249.84008272 .00023198 00000-0 51180-2 0 9992 2 44530 98.5829 12.2648 0011510 169.0519 191.0931 14.57281894263500 Duchifat 3 1 44854U 19089C 24249.30207594 .00039347 00000-0 17649-2 0 9998 2 44854 36.9547 281.3609 0004593 68.2415 291.8821 15.20302102260451 TO-108 1 44881U 19093C 24249.82247685 .00004491 00000-0 54261-3 0 9999 2 44881 97.8231 325.0484 0015401 62.0552 298.2219 14.84148857255009 FloripaSat 1 1 44885U 19093G 24249.82043888 .00015976 00000-0 15839-2 0 9999 2 44885 97.8370 331.8419 0012536 52.0294 308.2055 14.91814911255388 RS-44 1 44909U 19096E 24249.55974023 -.00000002 00000-0 -48632-4 0 9998 2 44909 82.5199 51.3531 0216848 223.1052 135.2893 12.79733399219257 UPMSat 2 1 46276U 20061E 24249.76387016 .00038849 00000-0 10350-2 0 9996 2 46276 97.2893 315.2428 0001812 159.6364 200.4954 15.38073474222547 AmicalSat 1 46287U 20061R 24249.24607490 .00094904 00000-0 19297-2 0 9995 2 46287 97.3399 316.9220 0001633 239.3940 120.7148 15.45951818221897 SALSAT 1 46495U 20068K 24249.44934389 .00019065 00000-0 10235-2 0 9993 2 46495 97.8236 210.8772 0014900 46.8805 313.3670 15.14885681216455 UVSQ-SAT 1 47438U 21006AB 24249.75895713 .00213174 00000-0 21547-2 0 9990 2 47438 97.3120 312.0687 0005540 247.0409 113.0266 15.64618684201255 SOMP 2b 1 47445U 21006AJ 24249.14986540 .00152386 00000-0 20222-2 0 9996 2 47445 97.3095 309.1662 0004963 266.8876 93.1812 15.57706875201043 IDEASSat 1 47458U 21006AX 24249.76123978 .00118055 00000-0 18790-2 0 9998 2 47458 97.3214 310.0083 0004779 271.3553 88.7152 15.52854018201041 CubeSX-Sirius-HSE 1 47951U 21022V 24249.86393256 .00051854 00000-0 17329-2 0 9993 2 47951 97.4477 148.2285 0011822 197.5709 162.5124 15.30768414190895 CubeSX-HSE 1 47952U 21022W 24249.87568485 .00053083 00000-0 17628-2 0 9991 2 47952 97.4477 148.3493 0011859 196.4407 163.6451 15.30966323190907 KSU-Cubesat 1 47954U 21022Y 24249.68118527 .00063373 00000-0 18403-2 0 9995 2 47954 97.4484 149.9091 0010978 186.7893 173.3203 15.35204454190706 GRBAlpha 1 47959U 21022AD 24249.83537523 .00050298 00000-0 16677-2 0 9991 2 47959 97.4475 148.4712 0011734 196.3622 163.7241 15.31032375189725 Orbicraft-Zorkiy 1 47960U 21022AE 24249.83873367 .00060053 00000-0 18227-2 0 9995 2 47960 97.4517 150.0838 0010941 189.5290 170.5747 15.33823425190495 TUBIN 1 48900U 21059X 24249.86036073 .00038730 00000-0 11690-2 0 9992 2 48900 97.6560 37.0984 0006572 161.1127 199.0360 15.34150022177271 LEDSAT 1 49069U 21073D 24249.74387613 .00041959 00000-0 14777-2 0 9997 2 49069 97.4302 320.5149 0016859 1.7753 358.3544 15.29047122168742 CUTE 1 49263U 21088D 24249.68874701 .00046624 00000-0 18975-2 0 9999 2 49263 97.4889 315.3439 0014199 157.4609 202.7255 15.24263494161882 TeikyoSat 4 1 49396U 21102B 24249.18036074 .00006477 00000-0 45900-3 0 9992 2 49396 97.4531 291.3955 0013275 12.1895 347.9650 15.05053533154789 Z-Sat 1 49399U 21102E 24249.84297331 .00011177 00000-0 69524-3 0 9994 2 49399 97.4237 293.8036 0019033 345.7021 14.3668 15.09636269155159 KOSEN 1 1 49402U 21102H 24249.71007521 .00015446 00000-0 87038-3 0 9998 2 49402 97.4161 295.4267 0016955 327.3306 32.6875 15.13165955155311 HO-113 1 50466U 21131B 24249.88012376 .00002539 00000-0 82152-3 0 9995 2 50466 98.5258 334.5754 0003316 235.5176 124.5699 14.39903102141614 IRIS-A 1 51044U 22002BN 24249.24040616 .00055498 00000-0 15467-2 0 9990 2 51044 97.3767 315.6794 0006448 113.3931 246.7992 15.36569525146695 OreSat0 1 52017U 22026K 24249.62220945 .00419508 00000-0 22135-2 0 9990 2 52017 97.4817 268.6867 0005472 222.8322 137.2519 15.79506748138276 Planetum 1 1 52738U 22057G 24249.77704246 .00140004 00000-0 22010-2 0 9995 2 52738 97.5722 19.4354 0005940 232.4913 127.5800 15.53110212127023 Foresail-1 1 52766U 22057AL 24249.35515079 .00055324 00000-0 15214-2 0 9992 2 52766 97.5909 17.0391 0008930 207.0593 153.0187 15.36968280126747 SNUGLITE 2 1 52899U 22065F 24249.45681212 .00005235 00000-0 10684-2 0 9994 2 52899 98.1313 29.1176 0006724 260.6900 99.3540 14.61321671115984 IO-117 1 53106U 22080B 24228.11242500 -.00000003 00000-0 00000-0 0 9994 2 53106 70.1424 172.0499 0007747 94.1050 266.0495 6.42557430 49057 SelfieSat 1 53951U 22057BC 24249.76647507 .05528807 25567-5 18212-2 0 9993 2 53951 97.5486 26.4593 0013552 281.5441 78.4329 16.25704205127447 FO-118 1 54684U 22167C 24249.87130853 .00080154 00000-0 21701-2 0 9992 2 54684 97.6138 37.0154 0009776 224.3820 135.6641 15.37330625 96661 SSS-2B 1 56184U 23054G 24249.85654697 .00104071 00000-0 17937-2 0 9991 2 56184 97.3542 148.9479 0004029 184.0304 176.0916 15.50672314 78596 CIRBE 1 56188U 23054L 24249.72317027 .00325695 00000-0 20261-2 0 9995 2 56188 97.3444 152.6640 0008673 151.3074 208.8670 15.76005531 78852 INSPIRE-Sat 7 1 56211U 23054AK 24249.29788042 .00652332 16343-3 24706-2 0 9992 2 56211 97.3419 154.0392 0010348 148.6107 211.5785 15.87575831 78898 SO-120 1 56992U 23084BU 24249.56241989 .00087217 00000-0 24653-2 0 9990 2 56992 97.5371 10.1973 0008991 104.4363 255.7879 15.35962763 68480 MRC-100 1 56993U 23084BV 24249.32716314 .00108986 00000-0 27294-2 0 9995 2 56993 97.5362 10.6892 0007355 103.0387 257.1680 15.39629983 68507 UmKA 1 (RS40S) 1 57172U 23091G 24249.87552703 .00015319 00000-0 96760-3 0 9995 2 57172 97.6041 301.1459 0016025 200.6056 159.4528 15.09046665 65655 CubeBel-2 (EU11S) 1 57175U 23091K 24249.84479070 .00020526 00000-0 12544-2 0 9993 2 57175 97.6031 301.1750 0014299 212.6897 147.3449 15.10210364 65657 VERONIKA 1 58261U 23174F 24249.80444879 .00048207 00000-0 18718-2 0 9992 2 58261 97.4540 324.0500 0010154 319.5995 40.4488 15.25876223 45984 KAFASAT 1 58317U 23174BP 24249.81286277 .00063246 00000-0 21220-2 0 9993 2 58317 97.4479 325.0418 0009244 289.7622 70.2622 15.30609137 46064 ENSO 1 58470U 23185J 24249.84467773 .00041286 00000-0 15364-2 0 9992 2 58470 97.4184 315.8844 0010750 359.3537 0.7686 15.27319354 42430 EIRSAT-1 1 58472U 23185L 24249.84312907 .00047083 00000-0 16943-2 0 9997 2 58472 97.4177 316.0119 0010156 359.5238 0.5991 15.28398487 42445 SO-121 1 58567U 23174CY 24248.17585312 .00174224 00000-0 37310-2 0 9996 2 58567 97.4467 324.7745 0009877 288.8390 71.1786 15.44066277 45901 SONATE-2 1 59112U 24043Q 24249.29960980 .00029470 00000-0 13118-2 0 9993 2 59112 97.4874 12.4412 0014187 17.0929 343.0781 15.21329713 27977 MESAT1 1 60209U 24125G 24249.14713354 .00029425 00000-0 13006-2 0 9994 2 60209 97.3144 100.1684 0026746 46.8171 313.5293 15.21332310 9566 GRBBeta 1 60237U 24128C 24249.50005611 .00010843 00000-0 93377-3 0 9992 2 60237 61.9957 322.2769 0015784 330.3532 29.6661 14.97691099 8623 Curium One 1 60242U 24128H 24249.53145773 .00016815 00000-0 14571-2 0 9998 2 60242 61.9865 322.3516 0017306 314.8138 45.1542 14.97146554 8632 ROBUSTA-3A 1 60243U 24128J 24249.53900878 .00016034 00000-0 13986-2 0 9996 2 60243 61.9931 322.4368 0015745 308.8158 51.1523 14.96935794 8630 CatSat 1 60246U 24125J 24249.50264519 .00018100 00000-0 80043-3 0 9993 2 60246 97.2967 101.7235 0051459 356.9659 3.1256 15.20527302 7737 SR-0 DemoSAT 1 60455U 24147B 24249.87109644 .00176561 00000-0 43078-2 0 9998 2 60455 37.3787 170.4760 0016760 184.9841 175.0756 15.39197880 3170 Binar 4 1 60952U 98067WS 24249.59968314 .00148388 00000-0 24068-2 0 9992 2 60952 51.6374 276.9165 0013188 328.9205 31.1004 15.51641754 1128 CosmoGirlSat 1 60953U 98067WT 24249.53555050 .00108777 00000-0 17968-2 0 9995 2 60953 51.6378 277.2379 0014118 325.8685 34.1396 15.51287953 1119 Sakura 1 60954U 98067WU 24249.34193350 .00130529 00000-0 21391-2 0 9991 2 60954 51.6378 278.1948 0014175 325.8848 34.1229 15.51412783 1088 Binar 2 1 60956U 98067WW 24249.53477633 .00147533 00000-0 23810-2 0 9994 2 60956 51.6372 277.2321 0013263 328.9922 31.0284 15.51783905 1100 Binar 3 1 60957U 98067WX 24249.34155771 .00176829 00000-0 28431-2 0 9994 2 60957 51.6373 278.1934 0013327 327.9301 32.0877 15.51771033 3068 /EX
